Home > Weather > Cape Coral > Past weeks

Flag for USA Past Weather in Cape Coral, Florida, USA — Yesterday and Last 2 Weeks

Now
78 °F

Low clouds.


Feels Like: 81 °F
Forecast: 76 / 87 °F
Wind: 6 mph from East

Location: Page Field

Current Time: Aug 27, 2016 at 6:13:00 AM

Latest Report: Aug 27, 2016 at 4:53 AM


Visibility: 10 mi

Pressure: 29.90 "Hg

Humidity: 96%

Dew Point: 77 °F

Location of Cape CoralLocation

Past Weather in Cape Coral — Graph

°F

Cape Coral Temperature Yesterday

Maximum temperature yesterday: 94 °F (at 2:53 PM)
Minimum temperature yesterday: 74 °F (at 6:53 PM)
Average temperature yesterday: 82 °F

High & Low Weather Summary for the Past Weeks

 TemperatureHumidityPressure
High94 °F (Aug 22, 3:04 PM)97% (Aug 12, 4:53 AM)30.16 "Hg (Aug 12, 4:53 AM)
Low74 °F (Aug 13, 12:53 AM)46% (Aug 23, 4:53 PM)29.87 "Hg (Aug 26, 4:53 PM)
Average83 °F79%30.04 "Hg
* Reported Aug 12 4:53 AM — Aug 27 4:53 AM, Cape Coral, Weather by CustomWeather, © 2016

Note: Actual official high and low records may vary slightly from our data, if they occured in-between our weather recording intervals... More about our weather records

Advertising

Cape Coral Weather History for the Previous 24 Hours

Scroll right to see more
 ConditionsComfort  
Time TempWeatherWind HumidityBarometerVisibility
4:53 AM
Sat, Aug 27
78 °FLow clouds.6 mph96%29.90 "Hg10 mi
3:53 AM77 °FClear.7 mph96%29.89 "Hg10 mi
2:53 AM77 °FClear.8 mph96%29.90 "Hg10 mi
1:53 AM77 °FClear.8 mph96%29.94 "Hg10 mi
12:53 AM77 °FPartly cloudy.6 mph94%29.97 "Hg10 mi
11:53 PM
Fri, Aug 26
77 °FPartly cloudy.3 mph90%29.99 "Hg10 mi
11:04 PM76 °FLight rain. Passing clouds.No wind94%29.98 "Hg10 mi
10:53 PM76 °FThundershowers. Overcast.5 mph94%29.98 "Hg10 mi
10:04 PM76 °FLight rain. Passing clouds.3 mph94%29.96 "Hg10 mi
9:53 PM76 °FThundershowers. Passing clouds.5 mph94%29.96 "Hg10 mi
8:53 PM76 °FLight rain. Passing clouds.7 mph97%29.96 "Hg7 mi
7:53 PM76 °FThundershowers. Scattered clouds.7 mph94%29.95 "Hg10 mi
7:03 PM74 °FThunderstorms. Fog.7 mph97%29.93 "Hg1 mi
6:53 PM74 °FStrong thunderstorms. Fog.15 mph97%29.96 "Hg1 mi
5:53 PM92 °FThunderstorms. Partly sunny.13 mph56%29.87 "Hg10 mi
4:53 PM92 °FScattered clouds.10 mph60%29.87 "Hg10 mi
3:53 PM93 °FPartly sunny.10 mph52%29.88 "Hg10 mi
2:53 PM94 °FSunny.5 mph52%29.90 "Hg10 mi
1:53 PM93 °FScattered clouds.9 mph58%29.92 "Hg10 mi
12:53 PM91 °FScattered clouds.9 mph64%29.94 "Hg10 mi
11:53 AM89 °FPartly sunny.9 mph68%29.95 "Hg10 mi
11:01 AM87 °FPartly sunny.12 mph75%29.96 "Hg10 mi
10:53 AM87 °FScattered clouds.13 mph75%29.97 "Hg10 mi
9:53 AM84 °FPassing clouds.12 mph83%29.96 "Hg10 mi
8:53 AM79 °FSunny.8 mph90%29.97 "Hg10 mi
7:53 AM78 °FClear.7 mph93%29.97 "Hg10 mi
6:53 AM77 °FLight rain. Clear.7 mph94%29.95 "Hg10 mi
Weather by CustomWeather, © 2016

See weather overviewHow to use our weather pages